User: anonymous   Login
Location: Asheville, NC
(35.6000°N, 82.5500°W)
Time: 00:02:34
(UTC-05:00)
Language:

XW-2B - Orbit

View from above orbital plane
View from above orbital plane
View from above satellite
View from above satellite

Ground track
Ground track

The orbit data is extracted from the following two-line orbital elements,

1 40911U 15049N   18019.82856445  .00000645  00000-0  37949-4 0  9996
2 40911  97.4589  26.2765 0014409 176.1932 183.9413 15.15065421128936
Epoch (UTC): 19 January 2018 19:53:07
Eccentricity: 0.0014409
inclination: 97.4589°
perigee height: 511 km
apogee height: 531 km
right ascension of ascending node: 26.2765°
argument of perigee: 176.1932°
revolutions per day: 15.15065421
mean anomaly at epoch: 183.9413°
orbit number at epoch: 12893

The dashed part of the orbit path shows where the satellite is in the earth's shadow,  

DLR